Istanbul, Turkey

7:43 AM +03 on February 22, 2017 (GMT +0300)
Ataturk

Weather History for LTBA - June, 2013

Change the Weather History Date:

Sunday, June 9, 2013

  Actual Average Record
Temperature  
Mean Temperature 72 °F -  
Max Temperature 79 °F 79 °F 91 °F (2002)
Min Temperature 66 °F 65 °F 59 °F (2004)
Cooling Degree Days 8    
Growing Degree Days 22 (Base 50)    
Moisture  
Dew Point 58 °F    
Average Humidity 60    
Maximum Humidity 83    
Minimum Humidity 36    
Precipitation  
Precipitation 0.00 in - - ()
Sea Level Pressure  
Sea Level Pressure 29.92 in    
Wind  
Wind Speed 8 mph ()    
Max Wind Speed 14 mph    
Max Gust Speed 28 mph    
Visibility 6.0 miles    
Events      
Averages and records for this station are not official NWS values.
T = Trace of Precipitation, MM = Missing Value Source: Averaged Metar Reports

Daily Weather History Graph

Daily Weather History Graph

Search for Another Location

Airport or City:

Trip Planner

Search our weather history database for the weather conditions in past years. The results will help you decide how hot, cold, wet, or windy it might be!

Date:

Astronomy

Jun. 09, 2013 Rise Set
Actual Time 5:32 AM EEST 8:35 PM EEST
Civil Twilight 4:59 AM EEST 9:09 PM EEST
Nautical Twilight 4:16 AM EEST 9:51 PM EEST
Astronomical Twilight 3:26 AM EEST 10:41 PM EEST
Moon 6:13 AM EEST (6/9) 9:07 PM EEST (6/9)
Length of Visible Light 16h 09m
Length of Day
15h 03m
New Moon, 0% of the Moon is Illuminated
Jun 9
New Moon
Jun 16
First Quarter
Jun 23
Full
Jun 30
Last Quarter
Jul 8
New

Hourly Weather History & Observations

Time (EEST) Temp. Dew Point Humidity Pressure Visibility Wind Dir Wind Speed Gust Speed Precip Events Conditions
12:20 AM 68.0 °F 59.0 °F 73% 29.89 in 6.2 mi NNE 9.2 mph - N/A   Partly Cloudy
12:50 AM 68.0 °F 59.0 °F 73% 29.89 in 6.2 mi NNE 10.4 mph - N/A   Partly Cloudy
1:20 AM 69.8 °F 60.8 °F 73% 29.89 in 6.2 mi Variable 9.2 mph - N/A   Partly Cloudy
1:50 AM 68.0 °F 59.0 °F 73% 29.89 in - NNE 8.1 mph - N/A   Clear
2:20 AM 68.0 °F 59.0 °F 73% 29.89 in - NNE 8.1 mph - N/A   Clear
2:50 AM 68.0 °F 60.8 °F 78% 29.89 in - NE 9.2 mph - N/A   Clear
3:00 AM 67 °F 60 °F 70% 29.89 in 6 mi NE 9.2 mph - -  
3:20 AM 68.0 °F 60.8 °F 78% 29.89 in - NE 5.8 mph - N/A   Clear
3:50 AM 66.2 °F 59.0 °F 78% 29.86 in - NE 5.8 mph - N/A   Clear
4:20 AM 66.2 °F 59.0 °F 78% 29.86 in - NNE 6.9 mph - N/A   Clear
4:50 AM 66.2 °F 59.0 °F 78% 29.89 in 6.2 mi NNE 6.9 mph - N/A   Partly Cloudy
5:20 AM 66.2 °F 59.0 °F 78% 29.89 in 6.2 mi ENE 5.8 mph - N/A   Partly Cloudy
5:50 AM 66.2 °F 60.8 °F 83% 29.89 in 6.2 mi NE 5.8 mph - N/A   Partly Cloudy
6:20 AM 68.0 °F 60.8 °F 78% 29.89 in 4.3 mi NE 4.6 mph - N/A   Partly Cloudy
6:50 AM 68.0 °F 60.8 °F 78% 29.89 in 4.3 mi Variable 5.8 mph - N/A   Partly Cloudy
7:20 AM 69.8 °F 59.0 °F 68% 29.89 in 4.3 mi NE 6.9 mph - N/A   Partly Cloudy
7:50 AM 71.6 °F 59.0 °F 64% 29.89 in 6.2 mi Variable 6.9 mph - N/A   Scattered Clouds
8:20 AM 71.6 °F 59.0 °F 64% 29.92 in 6.2 mi ENE 5.8 mph - N/A   Scattered Clouds
8:50 AM 71.6 °F 57.2 °F 60% 29.92 in 6.2 mi NE 8.1 mph - N/A   Scattered Clouds
9:00 AM 72 °F 57 °F 50% 29.93 in 6 mi NE 8.1 mph - -   Partly Cloudy
9:20 AM 73.4 °F 57.2 °F 57% 29.92 in 6.2 mi NE 8.1 mph - N/A   Scattered Clouds
9:50 AM 75.2 °F 57.2 °F 53% 29.92 in 6.2 mi NE 8.1 mph - N/A   Scattered Clouds
10:20 AM 75.2 °F 57.2 °F 53% 29.95 in 6.2 mi NE 9.2 mph - N/A   Scattered Clouds
10:50 AM 73.4 °F 57.2 °F 57% 29.95 in 6.2 mi North 11.5 mph - N/A   Scattered Clouds
11:20 AM 75.2 °F 55.4 °F 50% 29.95 in 6.2 mi NNE 11.5 mph - N/A   Scattered Clouds
11:50 AM 75.2 °F 57.2 °F 53% 29.95 in 6.2 mi NNE 10.4 mph - N/A   Scattered Clouds
12:20 PM 77.0 °F 57.2 °F 50% 29.95 in 6.2 mi NNE 9.2 mph - N/A   Scattered Clouds
12:50 PM 77.0 °F 57.2 °F 50% 29.95 in 6.2 mi NNE 11.5 mph - N/A   Scattered Clouds
1:20 PM 77.0 °F 55.4 °F 47% 29.95 in 6.2 mi NNE 11.5 mph - N/A   Scattered Clouds
1:50 PM 78.8 °F 55.4 °F 44% 29.92 in 6.2 mi NE 11.5 mph - N/A   Scattered Clouds
2:20 PM 77.0 °F 55.4 °F 47% 29.92 in 6.2 mi NNE 11.5 mph 27.6 mph N/A   Scattered Clouds
2:50 PM 77.0 °F 57.2 °F 50% 29.92 in 6.2 mi North 12.7 mph - N/A   Scattered Clouds
3:00 PM 77 °F 55 °F 36% 29.93 in 6 mi North 12.7 mph - -   Partly Cloudy
3:20 PM 77.0 °F 55.4 °F 47% 29.92 in 6.2 mi NNE 13.8 mph - N/A   Scattered Clouds
3:50 PM 78.8 °F 55.4 °F 44% 29.92 in 6.2 mi NNE 11.5 mph - N/A   Scattered Clouds
4:20 PM 77.0 °F 57.2 °F 50% 29.92 in 6.2 mi NE 12.7 mph - N/A   Scattered Clouds
4:50 PM 77.0 °F 55.4 °F 47% 29.92 in 6.2 mi NNE 11.5 mph - N/A   Scattered Clouds
5:20 PM 77.0 °F 53.6 °F 44% 29.92 in 6.2 mi NE 12.7 mph - N/A   Scattered Clouds
5:50 PM 77.0 °F 55.4 °F 47% 29.92 in 6.2 mi NE 12.7 mph - N/A   Partly Cloudy
6:20 PM 75.2 °F 53.6 °F 47% 29.92 in 6.2 mi NE 11.5 mph - N/A   Partly Cloudy
6:50 PM 75.2 °F 53.6 °F 47% 29.92 in 6.2 mi NE 13.8 mph - N/A   Partly Cloudy
7:20 PM 75.2 °F 53.6 °F 47% 29.92 in - NE 12.7 mph - N/A   Clear
7:50 PM 75.2 °F 51.8 °F 44% 29.95 in - NE 12.7 mph - N/A   Clear
8:20 PM 73.4 °F 55.4 °F 53% 29.95 in - NE 8.1 mph - N/A   Clear
8:50 PM 71.6 °F 59.0 °F 64% 29.95 in - NE 9.2 mph - N/A   Clear
9:00 PM 72 °F 58 °F 51% 29.95 in 6 mi NE 9.2 mph - -  
9:20 PM 71.6 °F 57.2 °F 60% 29.95 in - NNE 10.4 mph - N/A   Clear
9:50 PM 69.8 °F 59.0 °F 68% 29.95 in - NE 6.9 mph - N/A   Clear
10:20 PM 69.8 °F 59.0 °F 68% 29.98 in - NE 6.9 mph - N/A   Clear
10:50 PM 69.8 °F 59.0 °F 68% 29.98 in - ENE 6.9 mph - N/A   Clear
11:20 PM 69.8 °F 59.0 °F 68% 29.95 in - NE 9.2 mph - N/A   Clear
11:50 PM 69.8 °F 59.0 °F 68% 29.95 in - NE 9.2 mph - N/A   Clear